FW3572 Weather Reports


time (UTC)temp
F
wind
direction
speed
knots
gust
knots
rain 1hr
in
rain 24hr
in
rain mn
in
humidity
%
barometer
mb
20260510091536 74 225 0.0 0.0 0.00 0.11 0.00 100 1015.7
20260510091037 74 225 0.0 0.0 0.00 0.11 0.00 100 1015.7
20260510090536 74 225 0.0 0.0 0.00 0.11 0.00 100 1015.6
20260510090042 74 225 0.0 0.0 0.00 0.11 0.00 100 1015.6
20260510085533 74 225 0.0 0.0 0.00 0.11 0.00 100 1015.5
20260510085034 74 225 0.0 0.0 0.00 0.11 0.00 100 1015.5
20260510084534 74 225 0.0 0.0 0.00 0.11 0.00 100 1015.5
20260510084034 74 225 0.0 0.0 0.00 0.11 0.00 100 1015.5
20260510083533 74 225 0.0 2.6 0.00 0.11 0.00 100 1015.5
20260510083034 74 225 0.9 2.6 0.00 0.11 0.00 100 1015.4
20260510082532 75 288 0.0 0.0 0.00 0.11 0.00 100 1015.3
20260510082033 75 288 0.0 0.9 0.00 0.11 0.00 100 1015.4
20260510081531 75 288 0.0 0.9 0.00 0.11 0.00 100 1015.3
20260510081031 75 288 0.0 0.9 0.00 0.11 0.00 100 1015.3
20260510080534 75 288 0.0 0.0 0.00 0.11 0.00 100 1015.3
20260510080033 75 288 0.0 0.0 0.00 0.11 0.00 100 1015.3
20260510075531 75 288 0.0 0.0 0.00 0.11 0.00 100 1015.3
20260510075031 75 288 0.0 0.0 0.00 0.11 0.00 100 1015.2
20260510074534 75 288 0.0 0.0 0.00 0.11 0.00 100 1015.2
20260510074029 75 288 0.0 0.0 0.00 0.11 0.00 100 1015.3
20260510073534 75 288 0.0 0.0 0.00 0.11 0.00 100 1015.3
20260510073031 75 288 0.0 0.9 0.00 0.11 0.00 100 1015.4
20260510072529 75 288 0.0 1.7 0.00 0.11 0.00 100 1015.3
20260510072029 75 288 0.0 0.9 0.00 0.11 0.00 100 1015.3
20260510071527 75 287 0.0 0.0 0.00 0.11 0.00 100 1015.3
20260510071027 75 286 0.0 1.7 0.00 0.11 0.00 100 1015.3
20260510070530 75 286 0.0 3.5 0.00 0.11 0.00 100 1015.3
20260510070027 75 302 0.0 3.5 0.00 0.11 0.00 100 1015.3
20260510065529 75 304 0.0 4.3 0.00 0.11 0.00 100 1015.4
20260510065027 75 279 0.9 4.3 0.00 0.11 0.00 100 1015.4
20260510064528 75 321 0.9 3.5 0.00 0.11 0.00 100 1015.4
20260510064024 75 292 0.0 2.6 0.00 0.11 0.00 100 1015.5
20260510063524 75 274 0.0 2.6 0.00 0.11 0.00 100 1015.6
20260510063027 75 275 0.0 2.6 0.00 0.11 0.00 100 1015.6
20260510062523 75 277 0.0 2.6 0.00 0.11 0.00 100 1015.7
20260510062025 75 248 0.0 3.5 0.00 0.11 0.00 100 1015.7
20260510061529 75 242 0.9 4.3 0.00 0.11 0.00 100 1015.7
20260510061022 75 242 0.9 3.5 0.00 0.11 0.00 100 1015.8
20260510060522 75 243 0.0 0.0 0.00 0.11 0.00 100 1015.7
20260510060041 75 243 0.0 0.0 0.00 0.11 0.00 100 1015.7
20260510055521 75 243 0.0 0.0 0.00 0.11 0.00 100 1015.6
20260510055020 75 243 0.0 0.0 0.00 0.11 0.00 100 1015.7
20260510054521 76 228 0.0 0.0 0.00 0.11 0.00 100 1015.8
20260510054019 76 227 0.0 0.9 0.00 0.11 0.00 100 1015.9
20260510053519 76 227 0.0 0.9 0.00 0.11 0.00 100 1015.9
20260510053018 76 227 0.0 0.0 0.00 0.11 0.00 100 1016.1
20260510052518 76 200 0.0 0.0 0.00 0.11 0.00 100 1016.1
20260510052018 76 197 0.0 0.0 0.00 0.11 0.00 100 1016.1
20260510051518 76 192 0.0 0.0 0.00 0.11 0.00 100 1016.2
20260510051017 76 191 0.0 0.0 0.00 0.11 0.00 100 1016.1
20260510050517 76 190 0.0 0.0 0.00 0.11 0.00 100 1016.3
20260510050023 76 190 0.0 0.0 0.00 0.11 0.00 100 1016.3
20260510045519 76 190 0.0 0.0 0.00 0.11 0.00 100 1016.3
20260510045016 76 190 0.0 0.0 0.00 0.11 0.00 100 1016.3
20260510044517 76 190 0.0 0.0 0.00 0.11 0.00 100 1016.2
20260510044019 76 190 0.0 0.0 0.00 0.11 0.00 100 1016.2
20260510043517 76 190 0.0 0.0 0.00 0.11 0.00 100 1016.2
20260510043014 76 190 0.0 0.0 0.00 0.11 0.00 100 1016.3
20260510042514 77 190 0.0 0.0 0.00 0.11 0.00 100 1016.4
20260510042014 77 190 0.0 0.0 0.00 0.11 0.00 100 1016.5
20260510041516 76 190 0.0 0.0 0.00 0.11 0.00 100 1016.4
20260510041012 77 190 0.0 0.0 0.00 0.11 0.00 100 1016.5
20260510040511 77 190 0.0 0.0 0.00 0.11 0.00 100 1016.5
20260510040010 77 190 0.0 0.0 0.00 0.11 0.00 100 1016.5
20260510035510 77 190 0.0 0.0 0.00 0.11 0.00 100 1016.5
20260510035007 77 190 0.0 1.7 0.00 0.11 0.00 100 1016.6
20260510034507 77 190 0.0 2.6 0.00 0.11 0.11 100 1016.6
20260510034007 77 166 0.0 1.7 0.00 0.11 0.11 100 1016.5
20260510033506 77 155 0.0 0.0 0.00 0.11 0.11 100 1016.4
20260510033005 76 155 0.0 0.0 0.00 0.11 0.11 100 1016.4
20260510032506 76 155 0.0 0.0 0.00 0.11 0.11 100 1016.3
20260510032005 76 155 0.0 5.2 0.00 0.11 0.11 100 1016.2
20260510031505 76 155 1.7 5.2 0.00 0.11 0.11 100 1016.3
20260510031003 76 190 0.9 2.6 0.00 0.11 0.11 100 1016.2
20260510030503 77 311 0.0 0.9 0.00 0.11 0.11 100 1016.1
20260510030103 77 310 0.0 1.7 0.00 0.11 0.11 100 1016.0
20260510025504 77 310 0.0 0.9 0.00 0.11 0.11 100 1015.9
20260510025005 77 310 0.0 2.6 0.00 0.11 0.11 100 1016.0
20260510024504 77 311 0.0 2.6 0.00 0.11 0.11 100 1015.8
20260510024004 77 312 0.0 2.6 0.00 0.11 0.11 100 1015.8
20260510023502 77 348 0.9 3.5 0.01 0.11 0.11 100 1015.8
20260510023002 76 337 1.7 3.5 0.02 0.11 0.11 100 1015.8
20260510022504 77 348 0.0 3.5 0.11 0.11 0.11 100 1015.7
20260510022002 76 351 0.9 3.5 0.11 0.11 0.11 100 1015.5
20260510021502 76 12 0.0 3.5 0.11 0.11 0.11 100 1015.5
20260510021001 76 355 0.9 4.3 0.11 0.11 0.11 100 1015.4
20260510020502 76 342 0.9 4.3 0.11 0.11 0.11 100 1015.4
20260510020002 76 350 0.0 5.2 0.11 0.11 0.11 100 1015.3
20260510015502 76 348 1.7 5.2 0.11 0.11 0.11 100 1015.3
20260510015003 77 346 1.7 5.2 0.11 0.11 0.11 100 1015.4
20260510014501 77 330 0.0 7.8 0.11 0.11 0.11 100 1015.4
20260510014001 77 343 3.5 7.8 0.11 0.11 0.11 100 1015.3
20260510013501 78 24 1.7 10.4 0.10 0.10 0.10 100 1015.3
20260510013010 80 309 1.7 10.4 0.08 0.08 0.08 100 1015.5
20260510012500 83 325 4.3 9.6 0.00 0.00 0.00 100 1015.5
20260510012101 84 316 4.3 8.7 0.00 0.00 0.00 100 1015.1
20260510011625 84 355 0.9 7.8 0.00 0.00 0.00 100 1014.8
20260510011100 84 26 1.7 6.1 0.00 0.00 0.00 100 1014.6
20260510010600 83 291 0.9 5.2 0.00 0.00 0.00 100 1014.6
20260510010110 83 332 0.9 5.2 0.00 0.00 0.00 100 1014.6
20260510005601 83 316 1.7 11.3 0.00 0.00 0.00 100 1014.3
20260510005059 83 160 5.2 11.3 0.00 0.00 0.00 100 1014.0
20260510004600 82 153 3.5 12.2 0.00 0.00 0.00 100 1013.5
20260510004059 82 154 4.3 12.2 0.00 0.00 0.00 100 1013.4
20260510003601 82 137 5.2 10.4 0.00 0.00 0.00 100 1013.2
20260510003107 82 155 3.5 12.2 0.00 0.00 0.00 100 1013.2
20260510002558 82 165 6.1 13.0 0.00 0.00 0.00 100 1013.2
20260510002502 82 173 6.1 13.0 0.00 0.00 0.00 100 1013.2
20260510002058 82 188 6.1 10.4 0.00 0.00 0.00 100 1013.2
20260510001558 82 129 6.1 12.2 0.00 0.00 0.00 100 1013.1
20260510001057 83 148 3.5 12.2 0.00 0.00 0.00 100 1013.1
20260510000556 83 167 6.1 9.6 0.00 0.00 0.00 100 1013.1
20260510000059 83 184 4.3 13.0 0.00 0.00 0.00 100 1013.0
20260509235557 83 147 5.2 13.0 0.00 0.00 0.00 100 1012.9
20260509235057 83 155 4.3 11.3 0.00 0.00 0.00 100 1013.0
20260509234606 83 159 4.3 12.2 0.00 0.00 0.00 100 1012.9
20260509234056 83 174 4.3 12.2 0.00 0.00 0.00 100 1013.0
20260509233556 83 173 4.3 14.8 0.00 0.00 0.00 100 1012.9
20260509233103 83 138 6.1 16.5 0.00 0.00 0.00 100 1012.8
20260509232558 83 167 7.0 16.5 0.00 0.00 0.00 100 1012.7
20260509232056 83 150 7.0 14.8 0.00 0.00 0.00 100 1012.7
20260509231603 84 142 5.2 13.0 0.00 0.00 0.00 100 1012.8
20260509231055 84 141 6.1 13.0 0.00 0.00 0.00 100 1012.7
20260509230555 84 144 4.3 16.5 0.00 0.00 0.00 100 1012.8
20260509230057 84 150 8.7 15.6 0.00 0.00 0.00 100 1012.7
20260509225554 84 213 7.8 15.6 0.00 0.00 0.00 100 1012.9
20260509225502 84 162 7.8 15.6 0.00 0.00 0.00 100 1012.9
20260509225059 84 176 5.2 13.9 0.00 0.00 0.00 100 1012.8
20260509224604 84 169 9.6 16.5 0.00 0.00 0.00 100 1012.7
20260509224057 84 171 5.2 17.4 0.00 0.00 0.00 100 1012.7
20260509223554 84 159 6.1 17.4 0.00 0.00 0.00 100 1012.7
20260509223055 84 134 8.7 17.4 0.00 0.00 0.00 100 1012.7
20260509222556 84 163 7.0 19.1 0.00 0.00 0.00 100 1012.7
20260509222054 84 151 7.8 19.1 0.00 0.00 0.00 100 1012.7
20260509221553 85 157 7.8 16.5 0.00 0.00 0.00 100 1012.7
20260509221053 85 155 8.7 16.5 0.00 0.00 0.00 100 1012.8
20260509220552 85 155 7.0 14.8 0.00 0.00 0.00 100 1012.9
20260509220053 85 186 5.2 19.1 0.00 0.00 0.00 100 1012.8
20260509215552 85 118 7.8 19.1 0.00 0.00 0.00 100 1012.8
20260509214551 85 115 10.4 19.1 0.00 0.00 0.00 100 1012.8
20260509214051 84 134 9.6 19.1 0.00 0.00 0.00 100 1012.8
20260509213551 85 154 7.8 14.8 0.00 0.00 0.00 100 1012.8
20260509213102 85 138 9.6 14.8 0.00 0.00 0.00 100 1012.9
20260509212550 85 165 5.2 15.6 0.00 0.00 0.00 100 1012.8
20260509212050 85 168 8.7 18.2 0.00 0.00 0.00 100 1012.8
20260509211611 85 159 7.8 18.2 0.00 0.00 0.00 100 1012.8
20260509211051 85 148 6.1 16.5 0.00 0.00 0.00 100 1012.9
20260509210549 85 149 10.4 16.5 0.00 0.00 0.00 100 1012.8
20260509210056 84 161 7.8 19.1 0.00 0.00 0.00 100 1012.9
20260509205550 85 163 9.6 19.1 0.00 0.00 0.00 100 1012.9
20260509205048 84 133 9.6 17.4 0.00 0.00 0.00 100 1013.0
20260509204559 85 171 10.4 17.4 0.00 0.00 0.00 100 1012.9
20260509204048 86 123 5.2 11.3 0.00 0.00 0.00 100 1013.0
20260509203547 86 180 5.2 15.6 0.00 0.00 0.00 100 1012.9
20260509203057 85 140 7.8 15.6 0.00 0.00 0.00 100 1012.9
20260509202548 85 174 7.8 14.8 0.00 0.00 0.00 100 1013.0
20260509202047 85 140 8.7 14.8 0.00 0.00 0.00 100 1013.1
20260509201544 86 119 6.1 13.0 0.00 0.00 0.00 100 1013.0
20260509201044 86 127 6.1 12.2 0.00 0.00 0.00 100 1013.1
20260509200544 86 126 6.1 12.2 0.00 0.00 0.00 100 1013.2
20260509200044 86 130 4.3 13.9 0.00 0.00 0.00 100 1013.2
20260509195543 85 147 7.8 15.6 0.00 0.00 0.00 100 1013.2
20260509195043 85 156 7.8 15.6 0.00 0.00 0.00 100 1013.2
20260509194545 85 224 7.0 12.2 0.00 0.00 0.00 100 1013.4
20260509194043 85 182 7.0 13.0 0.00 0.00 0.00 100 1013.3
20260509193543 86 185 5.2 16.5 0.00 0.00 0.00 100 1013.4
20260509193054 85 182 8.7 17.4 0.00 0.00 0.00 100 1013.4
20260509192542 85 134 8.7 17.4 0.00 0.00 0.00 100 1013.5
20260509192040 85 136 7.8 16.5 0.00 0.00 0.00 100 1013.5
20260509191540 86 142 8.7 13.9 0.00 0.00 0.00 100 1013.7
20260509191039 86 150 6.1 12.2 0.00 0.00 0.00 100 1013.8
20260509190541 86 128 6.1 14.8 0.00 0.00 0.00 100 1013.7
20260509190046 87 138 5.2 14.8 0.00 0.00 0.00 100 1013.8
20260509185538 87 151 4.3 16.5 0.00 0.00 0.00 100 1013.9
20260509185037 86 120 7.8 16.5 0.00 0.00 0.00 100 1013.9
20260509184537 86 146 8.7 14.8 0.00 0.00 0.00 100 1014.0
20260509184037 86 130 5.2 15.6 0.00 0.00 0.00 100 1014.0
20260509183607 85 146 6.1 16.5 0.00 0.00 0.00 100 1013.9
20260509183038 85 169 7.8 15.6 0.00 0.00 0.00 100 1013.9
20260509182536 85 138 6.1 13.0 0.00 0.00 0.00 100 1014.0
20260509182036 86 146 7.0 15.6 0.00 0.00 0.00 100 1014.0
20260509181535 85 147 7.8 15.6 0.00 0.00 0.00 100 1014.1
20260509181035 85 127 7.0 14.8 0.00 0.00 0.00 100 1014.1
20260509180534 85 149 8.7 15.6 0.00 0.00 0.00 100 1014.2
20260509180034 85 149 8.7 15.6 0.00 0.00 0.00 100 1014.3
20260509175532 86 179 6.1 13.9 0.00 0.00 0.00 100 1014.3
20260509175035 86 135 5.2 14.8 0.00 0.00 0.00 100 1014.3
20260509174534 86 159 7.0 14.8 0.00 0.00 0.00 100 1014.4
20260509174033 86 146 2.6 10.4 0.00 0.00 0.00 100 1014.4
20260509173532 86 148 3.5 13.0 0.00 0.00 0.00 100 1014.3
20260509173031 87 171 6.1 13.0 0.00 0.00 0.00 100 1014.3
20260509172534 87 121 6.1 13.0 0.00 0.00 0.00 100 1014.5
20260509172031 87 116 5.2 12.2 0.00 0.00 0.00 100 1014.6
20260509171531 88 174 3.5 12.2 0.00 0.00 0.00 100 1014.6
20260509171030 90 143 5.2 12.2 0.00 0.00 0.00 100 1014.6
20260509170528 90 162 4.3 10.4 0.00 0.00 0.00 100 1014.6
20260509170030 90 213 5.2 12.2 0.00 0.00 0.00 100 1014.6
20260509165527 90 188 2.6 10.4 0.00 0.00 0.00 100 1014.6
20260509165023 90 267 4.3 10.4 0.00 0.00 0.00 100 1014.7
20260509164522 90 234 4.3 10.4 0.00 0.00 0.00 100 1014.8
20260509164021 90 188 4.3 10.4 0.00 0.00 0.00 100 1014.9
20260509163519 90 180 4.3 10.4 0.00 0.00 0.00 100 1014.9
20260509163023 89 207 3.5 10.4 0.00 0.00 0.00 100 1015.1
20260509162518 89 198 5.2 13.9 0.00 0.00 0.00 100 1015.2
20260509162018 89 175 4.3 13.9 0.00 0.00 0.00 100 1015.1
20260509161518 89 211 3.5 11.3 0.00 0.00 0.00 100 1015.3
20260509161014 89 200 2.6 8.7 0.00 0.00 0.00 100 1015.2
20260509160514 89 204 4.3 8.7 0.00 0.00 0.00 100 1015.3
20260509160014 88 204 2.6 8.7 0.00 0.00 0.00 100 1015.5
20260509155510 88 238 4.3 8.7 0.00 0.00 0.00 100 1015.6
20260509155008 88 165 4.3 9.6 0.00 0.00 0.00 100 1015.5
20260509154507 88 246 3.5 9.6 0.00 0.00 0.00 100 1015.6
20260509154006 88 198 2.6 9.6 0.00 0.00 0.00 100 1015.8
20260509153507 88 230 4.3 7.8 0.00 0.00 0.00 100 1015.9
20260509153009 88 207 3.5 8.7 0.00 0.00 0.00 100 1015.9
20260509152501 88 233 3.5 9.6 0.00 0.00 0.00 100 1016.0
20260509152101 87 175 3.5 11.3 0.00 0.00 0.00 100 1016.0
20260509151559 87 267 5.2 11.3 0.00 0.00 0.00 100 1016.0
20260509151056 87 178 4.3 8.7 0.00 0.00 0.00 100 1015.9
20260509150557 87 238 3.5 9.6 0.00 0.00 0.00 100 1016.0
20260509150053 87 226 3.5 14.8 0.00 0.00 0.00 100 1015.9
20260509145552 86 232 4.3 14.8 0.00 0.00 0.00 100 1016.0
20260509145051 86 246 3.5 8.7 0.00 0.00 0.00 100 1015.9
20260509144549 86 202 2.6 10.4 0.00 0.00 0.00 100 1015.9
20260509144047 85 194 4.3 10.4 0.00 0.00 0.00 100 1015.8
20260509143547 85 225 3.5 9.6 0.00 0.00 0.00 100 1015.8
20260509143050 85 207 3.5 10.4 0.00 0.00 0.00 100 1015.8
20260509142544 85 231 4.3 10.4 0.00 0.00 0.00 100 1015.8
20260509142043 84 246 2.6 7.8 0.00 0.00 0.00 100 1015.8
20260509141544 84 240 2.6 12.2 0.00 0.00 0.00 100 1015.7
20260509141040 83 211 3.5 12.2 0.00 0.00 0.00 100 1015.8
20260509140539 83 239 3.5 8.7 0.00 0.00 0.00 100 1015.9
20260509140043 83 202 1.7 8.7 0.00 0.00 0.00 100 1016.0
20260509135537 82 218 3.5 7.0 0.00 0.00 0.00 100 1016.1
20260509135037 82 252 2.6 6.1 0.00 0.00 0.00 100 1016.1
20260509134545 81 192 1.7 7.8 0.00 0.00 0.00 100 1016.1
20260509134034 81 224 2.6 7.8 0.00 0.00 0.00 100 1016.2
20260509133534 81 205 2.6 7.8 0.00 0.00 0.00 100 1016.2
20260509133033 80 254 3.5 7.0 0.00 0.00 0.00 100 1016.2
20260509132532 80 232 0.9 6.1 0.00 0.00 0.00 100 1016.1
20260509132031 80 234 2.6 7.8 0.00 0.00 0.00 100 1016.0
20260509131533 79 233 1.7 7.0 0.00 0.00 0.00 100 1016.1
20260509131030 79 232 2.6 7.0 0.00 0.00 0.00 100 1015.9
20260509130529 79 207 0.9 7.0 0.00 0.00 0.00 100 1015.8
20260509130029 79 225 1.7 8.7 0.00 0.00 0.00 100 1015.8
20260509125528 78 235 2.6 8.7 0.00 0.00 0.00 100 1015.7
20260509125028 78 209 1.7 7.0 0.00 0.00 0.00 100 1015.7
20260509124527 77 240 2.6 7.0 0.00 0.00 0.00 100 1015.6
20260509124029 77 244 2.6 7.0 0.00 0.00 0.00 100 1015.7
20260509123527 77 215 1.7 7.0 0.00 0.00 0.00 100 1015.6
20260509123026 77 204 0.9 7.0 0.00 0.00 0.00 100 1015.4
20260509122527 76 237 2.6 7.0 0.00 0.00 0.00 100 1015.5
20260509122028 76 200 1.7 5.2 0.00 0.00 0.00 100 1015.3
20260509121529 76 192 2.6 5.2 0.00 0.00 0.00 100 1015.3
20260509121026 76 184 1.7 6.1 0.00 0.00 0.00 100 1015.3
20260509120526 76 234 2.6 6.1 0.00 0.00 0.00 100 1015.3
20260509120027 76 172 2.6 4.3 0.00 0.00 0.00 100 1015.3
20260509115526 76 223 2.6 6.1 0.00 0.00 0.00 100 1015.2
20260509115025 76 167 2.6 6.1 0.00 0.00 0.00 100 1015.2
20260509114525 76 209 0.0 4.3 0.00 0.00 0.00 100 1015.2
20260509114032 75 236 0.9 4.3 0.00 0.00 0.00 100 1015.2
20260509113526 75 230 0.9 3.5 0.00 0.00 0.00 100 1015.1
20260509113027 75 241 0.0 2.6 0.00 0.00 0.00 100 1015.1
20260509112525 75 206 0.0 0.0 0.00 0.00 0.00 100 1014.9
20260509112025 75 204 0.0 0.0 0.00 0.00 0.00 100 1015.1
20260509111525 75 204 0.0 0.0 0.00 0.00 0.00 100 1015.1
20260509111025 75 191 0.0 0.0 0.00 0.00 0.00 100 1015.0
20260509110525 75 191 0.0 0.0 0.00 0.00 0.00 100 1015.0
20260509110024 75 191 0.0 0.0 0.00 0.00 0.00 100 1014.9
20260509105529 75 190 0.0 0.0 0.00 0.00 0.00 100 1015.0
20260509105024 75 190 0.0 0.0 0.00 0.00 0.00 100 1014.9
20260509104524 75 169 0.0 0.0 0.00 0.00 0.00 100 1014.8
20260509104023 75 169 0.0 0.0 0.00 0.00 0.00 100 1014.8
20260509103524 75 169 0.0 0.0 0.00 0.00 0.00 100 1014.8
20260509103026 75 169 0.0 0.0 0.00 0.00 0.00 100 1014.8
20260509102525 75 169 0.0 0.0 0.00 0.00 0.00 100 1014.7
20260509102025 75 169 0.0 0.0 0.00 0.00 0.00 100 1014.7
20260509101524 75 169 0.0 0.0 0.00 0.00 0.00 100 1014.7
20260509101023 75 169 0.0 0.0 0.00 0.00 0.00 100 1014.7
20260509100522 75 169 0.0 0.0 0.00 0.00 0.00 100 1014.6
20260509100023 75 169 0.0 0.0 0.00 0.00 0.00 100 1014.6
20260509095523 75 169 0.0 0.0 0.00 0.00 0.00 100 1014.5
20260509095021 75 175 0.0 0.0 0.00 0.00 0.00 100 1014.4
20260509094522 75 175 0.0 0.9 0.00 0.00 0.00 100 1014.5
20260509094022 75 174 0.0 7.0 0.00 0.00 0.00 100 1014.5
20260509093524 75 173 0.9 7.0 0.00 0.00 0.00 100 1014.5
20260509093021 75 146 1.7 5.2 0.00 0.00 0.00 100 1014.6
20260509092521 75 162 0.9 5.2 0.00 0.00 0.00 100 1014.5
20260509092020 76 177 0.9 3.5 0.00 0.00 0.00 100 1014.6